Home   Weather   El Monte   Past weeks
Flag for USA

Past Weather in El Monte, California, USA — Yesterday and Last 2 Weeks

Now
67 °F

Clear.


Feels Like: 67 °F
Forecast: 82 / 56 °F
Wind: 3 mph from South

Location: Fullerton Municipal Airport

Current Time: Oct 18, 2019 at 9:39:56 pm

Latest Report: Oct 18, 2019 at 8:53 pm


Visibility: 10 mi

Pressure: 29.87 "Hg

Humidity: 53%

Dew Point: 49 °F

Location of El MonteLocation

Past Weather in El Monte — Graph

°F

El Monte Temperature Yesterday

Maximum temperature yesterday: 75 °F (at 1:53 pm)
Minimum temperature yesterday: 63 °F (at 2:53 am)
Average temperature yesterday: 67 °F

High & Low Weather Summary for the Past Weeks

 TemperatureHumidityPressure
High92 °F (Oct 16, 12:53 pm)87% (Oct 15, 3:53 am)30.04 "Hg (Oct 15, 3:53 am)
Low53 °F (Oct 12, 6:53 am)3% (Oct 11, 1:53 pm)29.75 "Hg (Oct 17, 3:53 pm)
Average69 °F54%29.89 "Hg
* Reported Oct 3 7:53 pm — Oct 18 7:53 pm, El Monte. Weather by CustomWeather, © 2019

Note: Actual official high and low records may vary slightly from our data, if they occured in-between our weather recording intervals... More about our weather records

Advertising

El Monte Weather History for the Previous 24 Hours

Scroll right to see more
 ConditionsComfort  
Time TempWeatherWind HumidityBarometerVisibility
7:53 pm
Fri, Oct 18
70 °FClear.3 mph35%29.87 "Hg10 mi
6:53 pm71 °FPassing clouds.No wind34%29.86 "Hg10 mi
5:53 pm74 °FPassing clouds.6 mph28%29.85 "Hg10 mi
4:53 pm76 °FPassing clouds.12 mph31%29.86 "Hg10 mi
3:53 pm81 °FSunny.N/A30%29.85 "Hg10 mi
2:53 pm81 °FPassing clouds.10 mph34%29.86 "Hg10 mi
1:53 pm80 °FPassing clouds.8 mph31%29.87 "Hg10 mi
12:53 pm77 °FPassing clouds.5 mph40%29.90 "Hg10 mi
11:53 am74 °FPassing clouds.5 mph48%29.93 "Hg10 mi
10:53 am71 °FSunny.5 mph55%29.95 "Hg10 mi
9:53 am70 °FBroken clouds.3 mph59%29.95 "Hg10 mi
8:53 am66 °FScattered clouds.No wind65%29.93 "Hg10 mi
7:53 am61 °FBroken clouds.6 mph75%29.89 "Hg10 mi
6:53 am58 °FPassing clouds.No wind84%29.88 "Hg10 mi
6:01 am61 °FPassing clouds.No wind75%29.88 "Hg10 mi
5:15 am61 °FPassing clouds.No wind78%29.87 "Hg10 mi
4:53 am61 °FClear.5 mph78%29.85 "Hg10 mi
3:53 am62 °FClear.3 mph75%29.85 "Hg10 mi
2:53 am62 °FClear.No wind75%29.85 "Hg10 mi
1:53 am63 °FClear.5 mph75%29.84 "Hg10 mi
1:19 am64 °FPassing clouds.5 mph73%29.83 "Hg10 mi
12:53 am64 °FOvercast.6 mph73%29.82 "Hg10 mi
12:28 am64 °FMostly cloudy.5 mph75%29.82 "Hg10 mi
12:04 am64 °FPassing clouds.5 mph78%29.82 "Hg10 mi
10:53 pm
Thu, Oct 17
64 °FClear.3 mph78%29.80 "Hg10 mi
9:53 pm65 °FClear.5 mph76%29.79 "Hg10 mi
9:37 pm65 °FPassing clouds.5 mph76%29.78 "Hg10 mi
Weather by CustomWeather, © 2019

See weather overview